Time,TemperatureF,DewpointF,PressureIn,WindDirection,WindDirectionDegrees,WindSpeedMPH,WindSpeedGustMPH,Humidity,HourlyPrecipIn,Conditions,Clouds,dailyrainin,SolarRadiationWatts/m^2,SoftwareType,DateUTC
2013-02-14 00:00:00,33.8,32.3,29.77,NNW,336,0.0,0.0,94,0.00,,,0.00,0,Wunderground v.1.15,2013-02-14 05:00:00,
2013-02-14 00:10:00,33.7,32.2,29.78,NNW,336,0.0,0.0,94,0.00,,,0.00,0,Wunderground v.1.15,2013-02-14 05:10:00,
2013-02-14 00:20:00,33.5,32.0,29.78,NNW,336,0.0,0.0,94,0.00,,,0.00,0,Wunderground v.1.15,2013-02-14 05:20:00,
2013-02-14 00:30:00,33.3,31.5,29.79,NNW,336,0.0,0.0,93,0.00,,,0.00,0,Wunderground v.1.15,2013-02-14 05:30:00,
2013-02-14 00:40:00,33.2,31.7,29.80,NNW,336,0.0,0.0,94,0.00,,,0.00,0,Wunderground v.1.15,2013-02-14 05:40:00,
2013-02-14 00:50:00,33.2,31.7,29.80,NNW,336,0.0,0.0,94,0.00,,,0.00,0,Wunderground v.1.15,2013-02-14 05:50:00,
2013-02-14 01:00:00,33.3,31.8,29.80,NNW,336,0.0,0.0,94,0.00,,,0.00,0,Wunderground v.1.15,2013-02-14 06:00:00,
2013-02-14 01:10:00,33.4,31.9,29.81,NNW,336,0.0,0.0,94,0.00,,,0.00,0,Wunderground v.1.15,2013-02-14 06:10:00,
2013-02-14 01:20:00,33.6,32.1,29.81,NNW,336,0.0,0.0,94,0.00,,,0.00,0,Wunderground v.1.15,2013-02-14 06:20:00,
2013-02-14 01:30:00,33.7,32.2,29.81,NNW,336,0.0,0.0,94,0.00,,,0.00,0,Wunderground v.1.15,2013-02-14 06:30:00,
2013-02-14 01:40:00,33.6,32.1,29.82,NNW,336,0.0,0.0,94,0.00,,,0.00,0,Wunderground v.1.15,2013-02-14 06:40:00,
2013-02-14 01:50:00,33.6,32.1,29.81,NNW,336,0.0,0.0,94,0.00,,,0.00,0,Wunderground v.1.15,2013-02-14 06:50:00,
2013-02-14 02:00:00,33.7,32.2,29.83,NNW,336,0.0,0.0,94,0.00,,,0.00,0,Wunderground v.1.15,2013-02-14 07:00:00,
2013-02-14 02:10:00,33.8,32.3,29.83,NNW,336,0.0,0.0,94,0.00,,,0.00,0,Wunderground v.1.15,2013-02-14 07:10:00,
2013-02-14 02:20:00,33.9,32.4,29.83,NNW,336,0.0,0.0,94,0.00,,,0.00,0,Wunderground v.1.15,2013-02-14 07:20:00,
2013-02-14 02:30:00,33.9,32.4,29.84,NNW,336,0.0,0.0,94,0.00,,,0.00,0,Wunderground v.1.15,2013-02-14 07:30:00,
2013-02-14 02:40:00,34.1,32.6,29.83,NNW,336,0.0,0.0,94,0.00,,,0.00,0,Wunderground v.1.15,2013-02-14 07:40:00,
2013-02-14 02:50:00,34.3,32.8,29.84,NNW,336,0.0,0.0,94,0.00,,,0.00,0,Wunderground v.1.15,2013-02-14 07:50:00,
2013-02-14 03:00:00,34.3,32.8,29.84,NNW,336,0.0,0.0,94,0.00,,,0.00,0,Wunderground v.1.15,2013-02-14 08:00:00,
2013-02-14 03:10:00,34.3,32.8,29.84,WNW,296,1.0,1.0,94,0.00,,,0.00,0,Wunderground v.1.15,2013-02-14 08:10:00,
2013-02-14 03:20:00,34.4,32.9,29.84,West,279,1.0,1.0,94,0.00,,,0.00,0,Wunderground v.1.15,2013-02-14 08:20:00,
2013-02-14 03:30:00,34.2,32.7,29.85,NW,323,0.0,1.0,94,0.00,,,0.00,0,Wunderground v.1.15,2013-02-14 08:30:00,
2013-02-14 03:40:00,34.1,32.6,29.86,West,269,0.0,6.0,94,0.00,,,0.00,0,Wunderground v.1.15,2013-02-14 08:40:00,
2013-02-14 03:50:00,34.1,32.6,29.86,NW,306,1.0,1.0,94,0.00,,,0.00,0,Wunderground v.1.15,2013-02-14 08:50:00,
2013-02-14 04:00:00,34.2,32.4,29.87,NW,306,1.0,2.0,93,0.00,,,0.00,0,Wunderground v.1.15,2013-02-14 09:00:00,
2013-02-14 04:10:00,34.4,32.3,29.88,NNW,331,1.0,2.0,92,0.00,,,0.00,0,Wunderground v.1.15,2013-02-14 09:10:00,
2013-02-14 04:20:00,34.4,32.0,29.88,NNW,330,0.0,0.0,91,0.00,,,0.00,0,Wunderground v.1.15,2013-02-14 09:20:00,
2013-02-14 04:30:00,34.4,31.5,29.89,NNW,331,0.0,0.0,89,0.00,,,0.00,0,Wunderground v.1.15,2013-02-14 09:30:00,
2013-02-14 04:40:00,34.4,31.2,29.90,NNW,331,0.0,0.0,88,0.00,,,0.00,0,Wunderground v.1.15,2013-02-14 09:40:00,
2013-02-14 04:50:00,34.4,30.9,29.90,NNW,331,0.0,0.0,87,0.00,,,0.00,0,Wunderground v.1.15,2013-02-14 09:50:00,
2013-02-14 05:00:00,34.3,30.5,29.90,NNW,331,0.0,0.0,86,0.00,,,0.00,0,Wunderground v.1.15,2013-02-14 10:00:00,
2013-02-14 05:10:00,34.0,30.3,29.90,NNW,331,0.0,0.0,86,0.00,,,0.00,0,Wunderground v.1.15,2013-02-14 10:10:00,
2013-02-14 05:20:00,33.5,29.5,29.92,NNW,331,0.0,0.0,85,0.00,,,0.00,0,Wunderground v.1.15,2013-02-14 10:20:00,
2013-02-14 05:30:00,32.8,28.5,29.91,WNW,294,0.0,0.0,84,0.00,,,0.00,0,Wunderground v.1.15,2013-02-14 10:30:00,
2013-02-14 05:40:00,32.6,28.3,29.92,WNW,294,0.0,0.0,84,0.00,,,0.00,0,Wunderground v.1.15,2013-02-14 10:40:00,
2013-02-14 05:50:00,32.7,28.1,29.91,WNW,294,0.0,1.0,83,0.00,,,0.00,0,Wunderground v.1.15,2013-02-14 10:50:00,
2013-02-14 06:00:00,33.0,28.1,29.92,WSW,254,2.0,3.0,82,0.00,,,0.00,0,Wunderground v.1.15,2013-02-14 11:00:00,
2013-02-14 06:10:00,33.4,28.2,29.92,West,272,0.0,0.0,81,0.00,,,0.00,0,Wunderground v.1.15,2013-02-14 11:10:00,
2013-02-14 06:20:00,33.3,27.8,29.93,West,272,0.0,0.0,80,0.00,,,0.00,0,Wunderground v.1.15,2013-02-14 11:20:00,
2013-02-14 06:30:00,32.8,27.3,29.93,SE,131,1.0,2.0,80,0.00,,,0.00,0,Wunderground v.1.15,2013-02-14 11:30:00,
2013-02-14 06:40:00,32.6,27.1,29.94,SSW,199,0.0,0.0,80,0.00,,,0.00,0,Wunderground v.1.15,2013-02-14 11:40:00,
2013-02-14 06:50:00,32.8,27.3,29.94,NW,312,0.0,1.0,80,0.00,,,0.00,0,Wunderground v.1.15,2013-02-14 11:50:00,
2013-02-14 07:00:00,32.9,27.1,29.94,WSW,255,1.0,1.0,79,0.00,,,0.00,0,Wunderground v.1.15,2013-02-14 12:00:00,
2013-02-14 07:10:00,33.0,26.9,29.95,West,260,2.0,2.0,78,0.00,,,0.00,5,Wunderground v.1.15,2013-02-14 12:10:00,
2013-02-14 07:20:00,33.2,26.8,29.94,West,261,2.0,2.0,77,0.00,,,0.00,18,Wunderground v.1.15,2013-02-14 12:20:00,
2013-02-14 07:30:00,32.9,26.5,29.95,West,267,2.0,2.0,77,0.00,,,0.00,62,Wunderground v.1.15,2013-02-14 12:30:00,
2013-02-14 07:40:00,33.2,26.8,29.96,WSW,258,1.0,1.0,77,0.00,,,0.00,91,Wunderground v.1.15,2013-02-14 12:40:00,
2013-02-14 07:50:00,32.8,26.7,29.96,SSW,208,0.0,0.0,78,0.00,,,0.00,141,Wunderground v.1.15,2013-02-14 12:50:00,
2013-02-14 08:00:00,31.8,27.5,29.97,SSW,208,0.0,0.0,84,0.00,,,0.00,179,Wunderground v.1.15,2013-02-14 13:00:00,
2013-02-14 08:10:00,33.5,28.6,29.96,SSW,208,0.0,0.0,82,0.00,,,0.00,237,Wunderground v.1.15,2013-02-14 13:10:00,
2013-02-14 08:20:00,33.4,28.5,29.97,SSW,208,0.0,0.0,82,0.00,,,0.00,234,Wunderground v.1.15,2013-02-14 13:20:00,
2013-02-14 08:30:00,34.7,28.2,29.97,SSW,208,0.0,0.0,77,0.00,,,0.01,207,Wunderground v.1.15,2013-02-14 13:30:00,
2013-02-14 08:40:00,35.4,28.3,29.97,SSW,208,0.0,0.0,75,0.00,,,0.01,265,Wunderground v.1.15,2013-02-14 13:40:00,
2013-02-14 11:20:00,41.7,30.8,29.99,SW,235,1.0,1.0,65,0.00,,,0.05,573,Wunderground v.1.15,2013-02-14 16:20:00,
2013-02-14 11:30:00,42.1,31.2,29.99,SE,136,0.0,5.0,65,0.00,,,0.05,578,Wunderground v.1.15,2013-02-14 16:30:00,
2013-02-14 11:40:00,42.1,31.2,29.98,SSW,204,1.0,1.0,65,0.00,,,0.05,580,Wunderground v.1.15,2013-02-14 16:40:00,
2013-02-14 11:50:00,42.9,32.3,29.98,SSW,200,1.0,1.0,66,0.00,,,0.05,91,Wunderground v.1.15,2013-02-14 16:50:00,
2013-02-14 12:00:00,42.8,31.5,29.98,SSE,167,1.0,1.0,64,0.00,,,0.05,120,Wunderground v.1.15,2013-02-14 17:00:00,
2013-02-14 12:10:00,43.4,32.0,29.98,SW,234,1.0,1.0,64,0.00,,,0.05,86,Wunderground v.1.15,2013-02-14 17:10:00,
2013-02-14 12:20:00,43.3,31.1,29.98,WSW,245,2.0,2.0,62,0.00,,,0.05,86,Wunderground v.1.15,2013-02-14 17:20:00,
2013-02-14 12:30:00,44.2,33.2,29.98,SSE,154,2.0,2.0,65,0.00,,,0.05,104,Wunderground v.1.15,2013-02-14 17:30:00,
2013-02-14 12:40:00,44.5,32.3,29.98,WSW,246,2.0,2.0,62,0.00,,,0.05,93,Wunderground v.1.15,2013-02-14 17:40:00,
2013-02-14 12:50:00,45.2,33.7,29.97,SSE,149,1.0,3.0,64,0.00,,,0.05,93,Wunderground v.1.15,2013-02-14 17:50:00,
2013-02-14 13:00:00,45.1,33.6,29.97,West,273,1.0,1.0,64,0.00,,,0.05,146,Wunderground v.1.15,2013-02-14 18:00:00,
2013-02-14 13:10:00,46.1,33.0,29.97,WSW,245,2.0,6.0,60,0.00,,,0.05,160,Wunderground v.1.15,2013-02-14 18:10:00,
2013-02-14 13:20:00,45.6,32.9,29.95,SW,234,2.0,2.0,61,0.00,,,0.05,105,Wunderground v.1.15,2013-02-14 18:20:00,
2013-02-14 13:30:00,46.4,33.7,29.95,SSW,211,1.0,4.0,61,0.00,,,0.05,91,Wunderground v.1.15,2013-02-14 18:30:00,
2013-02-14 13:40:00,46.0,31.6,29.95,WSW,246,1.0,1.0,57,0.00,,,0.05,142,Wunderground v.1.15,2013-02-14 18:40:00,
2013-02-14 13:50:00,46.8,32.8,29.95,SW,229,1.0,1.0,58,0.00,,,0.05,185,Wunderground v.1.15,2013-02-14 18:50:00,
2013-02-14 14:00:00,46.7,31.8,29.94,NNW,337,0.0,2.0,56,0.00,,,0.05,137,Wunderground v.1.15,2013-02-14 19:00:00,
2013-02-14 14:10:00,46.6,32.6,29.93,ENE,66,1.0,1.0,58,0.00,,,0.05,162,Wunderground v.1.15,2013-02-14 19:10:00,
2013-02-14 14:20:00,48.5,33.5,29.92,WSW,245,2.0,3.0,56,0.00,,,0.05,130,Wunderground v.1.15,2013-02-14 19:20:00,
2013-02-14 14:30:00,48.5,32.6,29.93,WSW,239,3.0,3.0,54,0.00,,,0.05,322,Wunderground v.1.15,2013-02-14 19:30:00,
2013-02-14 14:40:00,48.9,31.5,29.93,South,175,1.0,1.0,51,0.00,,,0.05,174,Wunderground v.1.15,2013-02-14 19:40:00,
2013-02-14 14:50:00,48.2,31.4,29.93,SSW,199,1.0,1.0,52,0.00,,,0.05,121,Wunderground v.1.15,2013-02-14 19:50:00,
2013-02-14 15:00:00,48.8,32.4,29.93,WSW,250,2.0,2.0,53,0.00,,,0.05,364,Wunderground v.1.15,2013-02-14 20:00:00,
2013-02-14 15:10:00,48.2,31.4,29.93,WSW,254,1.0,2.0,52,0.00,,,0.05,77,Wunderground v.1.15,2013-02-14 20:10:00,
2013-02-14 15:20:00,48.6,31.8,29.93,SW,229,2.0,2.0,52,0.00,,,0.05,230,Wunderground v.1.15,2013-02-14 20:20:00,
2013-02-14 15:30:00,48.9,31.5,29.94,SW,225,1.0,1.0,51,0.00,,,0.05,234,Wunderground v.1.15,2013-02-14 20:30:00,
2013-02-14 15:40:00,48.9,31.5,29.94,SSW,213,2.0,5.0,51,0.00,,,0.05,125,Wunderground v.1.15,2013-02-14 20:40:00,
2013-02-14 15:50:00,47.9,32.0,29.94,SSW,213,1.0,1.0,54,0.00,,,0.05,77,Wunderground v.1.15,2013-02-14 20:50:00,
2013-02-14 16:00:00,47.6,32.2,29.94,SW,215,1.0,2.0,55,0.00,,,0.05,185,Wunderground v.1.15,2013-02-14 21:00:00,
2013-02-14 16:10:00,47.7,32.3,29.93,SSE,155,0.0,0.0,55,0.00,,,0.05,98,Wunderground v.1.15,2013-02-14 21:10:00,
2013-02-14 16:20:00,47.5,32.1,29.93,SW,221,0.0,1.0,55,0.00,,,0.05,83,Wunderground v.1.15,2013-02-14 21:20:00,
2013-02-14 16:30:00,47.3,31.9,29.93,SW,214,1.0,1.0,55,0.00,,,0.05,72,Wunderground v.1.15,2013-02-14 21:30:00,
2013-02-14 16:40:00,47.4,32.5,29.92,SSE,153,0.0,0.0,56,0.00,,,0.05,127,Wunderground v.1.15,2013-02-14 21:40:00,
2013-02-14 16:50:00,47.1,31.7,29.93,SSE,154,0.0,2.0,55,0.00,,,0.05,53,Wunderground v.1.15,2013-02-14 21:50:00,
2013-02-14 17:00:00,46.7,32.3,29.92,SSE,155,0.0,0.0,57,0.00,,,0.05,37,Wunderground v.1.15,2013-02-14 22:00:00,
2013-02-14 17:10:00,45.8,31.4,29.93,SE,143,0.0,0.0,57,0.00,,,0.05,19,Wunderground v.1.15,2013-02-14 22:10:00,
2013-02-14 17:20:00,45.4,31.0,29.93,SE,143,0.0,0.0,57,0.00,,,0.05,14,Wunderground v.1.15,2013-02-14 22:20:00,
2013-02-14 17:30:00,44.1,31.1,29.93,SE,143,0.0,0.0,60,0.00,,,0.05,12,Wunderground v.1.15,2013-02-14 22:30:00,
2013-02-14 17:40:00,43.6,31.0,29.94,SE,143,0.0,0.0,61,0.00,,,0.05,5,Wunderground v.1.15,2013-02-14 22:40:00,
2013-02-14 17:50:00,42.8,30.7,29.94,SE,143,0.0,0.0,62,0.00,,,0.05,0,Wunderground v.1.15,2013-02-14 22:50:00,
2013-02-14 18:00:00,41.7,30.4,29.94,SE,143,0.0,0.0,64,0.00,,,0.05,0,Wunderground v.1.15,2013-02-14 23:00:00,
2013-02-14 18:10:00,41.5,30.2,29.94,SE,143,0.0,0.0,64,0.00,,,0.05,0,Wunderground v.1.15,2013-02-14 23:10:00,
2013-02-14 18:20:00,41.6,30.3,29.94,SE,143,0.0,0.0,64,0.00,,,0.05,0,Wunderground v.1.15,2013-02-14 23:20:00,
2013-02-14 18:30:00,41.6,30.7,29.95,SE,143,0.0,1.0,65,0.00,,,0.05,0,Wunderground v.1.15,2013-02-14 23:30:00,
2013-02-14 18:40:00,41.8,30.9,29.95,SE,143,0.0,0.0,65,0.00,,,0.05,0,Wunderground v.1.15,2013-02-14 23:40:00,
2013-02-14 18:50:00,41.9,30.6,29.95,SE,143,0.0,0.0,64,0.00,,,0.05,0,Wunderground v.1.15,2013-02-14 23:50:00,
2013-02-14 19:00:00,41.3,30.0,29.96,SE,143,0.0,0.0,64,0.00,,,0.05,0,Wunderground v.1.15,2013-02-15 00:00:00,
2013-02-14 19:10:00,40.9,29.7,29.96,SE,143,0.0,0.0,64,0.00,,,0.05,0,Wunderground v.1.15,2013-02-15 00:10:00,
2013-02-14 19:20:00,40.7,29.8,29.97,SE,143,0.0,0.0,65,0.00,,,0.05,0,Wunderground v.1.15,2013-02-15 00:20:00,
2013-02-14 19:30:00,40.2,29.4,29.97,SE,143,0.0,0.0,65,0.00,,,0.05,0,Wunderground v.1.15,2013-02-15 00:30:00,
2013-02-14 19:40:00,39.6,29.5,29.96,SE,143,0.0,0.0,67,0.00,,,0.05,0,Wunderground v.1.15,2013-02-15 00:40:00,
2013-02-14 19:50:00,39.1,29.1,29.96,SE,143,0.0,0.0,67,0.00,,,0.05,0,Wunderground v.1.15,2013-02-15 00:50:00,
2013-02-14 20:00:00,36.9,28.7,29.96,SE,143,0.0,0.0,72,0.00,,,0.05,0,Wunderground v.1.15,2013-02-15 01:00:00,
2013-02-14 20:10:00,38.3,29.0,29.96,SE,143,0.0,0.0,69,0.00,,,0.05,0,Wunderground v.1.15,2013-02-15 01:10:00,
2013-02-14 20:20:00,38.5,29.2,29.96,SE,143,0.0,0.0,69,0.00,,,0.05,0,Wunderground v.1.15,2013-02-15 01:20:00,
2013-02-14 20:30:00,38.3,29.0,29.96,SE,143,0.0,0.0,69,0.00,,,0.05,0,Wunderground v.1.15,2013-02-15 01:30:00,
2013-02-14 20:40:00,37.9,29.0,29.96,SE,143,0.0,0.0,70,0.00,,,0.05,0,Wunderground v.1.15,2013-02-15 01:40:00,
2013-02-14 20:50:00,37.3,28.8,29.95,SE,143,0.0,0.0,71,0.00,,,0.05,0,Wunderground v.1.15,2013-02-15 01:50:00,
2013-02-14 21:00:00,37.7,28.8,29.96,SE,143,0.0,0.0,70,0.00,,,0.05,0,Wunderground v.1.15,2013-02-15 02:00:00,
2013-02-14 21:10:00,36.8,28.6,29.96,SE,143,0.0,0.0,72,0.00,,,0.05,0,Wunderground v.1.15,2013-02-15 02:10:00,
2013-02-14 21:20:00,36.0,28.2,29.96,SE,143,0.0,0.0,73,0.00,,,0.05,0,Wunderground v.1.15,2013-02-15 02:20:00,
2013-02-14 21:30:00,35.3,28.2,29.96,SE,143,0.0,0.0,75,0.00,,,0.05,0,Wunderground v.1.15,2013-02-15 02:30:00,
2013-02-14 21:40:00,34.6,27.2,29.95,SE,143,0.0,0.0,74,0.00,,,0.05,0,Wunderground v.1.15,2013-02-15 02:40:00,
2013-02-14 21:50:00,33.6,27.2,29.95,SE,143,0.0,0.0,77,0.00,,,0.05,0,Wunderground v.1.15,2013-02-15 02:50:00,
2013-02-14 22:00:00,33.6,27.8,29.95,SE,143,0.0,0.0,79,0.00,,,0.05,0,Wunderground v.1.15,2013-02-15 03:00:00,
2013-02-14 22:10:00,33.8,28.0,29.96,SE,143,0.0,0.0,79,0.00,,,0.05,0,Wunderground v.1.15,2013-02-15 03:10:00,
2013-02-14 22:20:00,32.8,27.3,29.95,SE,143,0.0,0.0,80,0.00,,,0.05,0,Wunderground v.1.15,2013-02-15 03:20:00,
2013-02-14 22:30:00,33.2,27.7,29.95,SE,143,0.0,0.0,80,0.00,,,0.05,0,Wunderground v.1.15,2013-02-15 03:30:00,
2013-02-14 22:40:00,33.2,27.4,29.94,SE,143,0.0,0.0,79,0.00,,,0.05,0,Wunderground v.1.15,2013-02-15 03:40:00,
2013-02-14 22:50:00,32.6,27.1,29.94,SE,143,0.0,0.0,80,0.00,,,0.05,0,Wunderground v.1.15,2013-02-15 03:50:00,
2013-02-14 23:00:00,32.3,26.8,29.94,SE,143,0.0,0.0,80,0.00,,,0.05,0,Wunderground v.1.15,2013-02-15 04:00:00,
2013-02-14 23:10:00,31.0,25.9,29.94,SE,143,0.0,0.0,81,0.00,,,0.05,0,Wunderground v.1.15,2013-02-15 04:10:00,
2013-02-14 23:20:00,30.7,26.1,29.95,SE,143,0.0,0.0,83,0.00,,,0.05,0,Wunderground v.1.15,2013-02-15 04:20:00,
2013-02-14 23:30:00,30.9,26.6,29.95,SE,143,0.0,0.0,84,0.00,,,0.05,0,Wunderground v.1.15,2013-02-15 04:30:00,
2013-02-14 23:40:00,31.5,27.2,29.95,SE,143,0.0,0.0,84,0.00,,,0.05,0,Wunderground v.1.15,2013-02-15 04:40:00,
2013-02-14 23:50:00,31.3,26.4,29.95,SE,143,0.0,0.0,82,0.00,,,0.05,0,Wunderground v.1.15,2013-02-15 04:50:00,